Starlink 11295

operational
NORAD ID: 61536 Int'l Des: 2024-184 Owner: SPXS Country: US Constellation: starlink
LEOCIRCULAR

About Starlink 11295

Description loading...

Live Position

Loading 3D Globe...

Upcoming Passes

Altitude History

Altitude vs Time

uPlot chart will show altitude changes over time

Two-Line Element Set

1 61536U 24184E 25305.55630785 .00003805 00000-0 36295-4 0 9999
2 61536 53.1577 147.8340 0001250 107.4430 252.6725 15.69680841 60299
Epoch: Nov 1, 2025 • Age: 23 hours

Current Status

Altitude 361.5 km
Velocity 7.70 km/s
Sub-Earth Point 34.64°N, 57.31°E
Launch Date Oct 15, 2024
Age 1 years
Type internet

Technical Details

Classification Payload
Mass 960.00 kg
Dry Mass 910.00 kg
Total Mass 960.00 kg
Length 0.30 m
Diameter 4.10 m
Span 29.00 m
Shape Box + pan
Manufacturer SPXS
Bus Type Starlink V2MD
Phase Status In Orbit
Owner/State SPXS/US

Large Constellations

Loading constellations...